• Processing (Info)

  • MPEC 2006-L03 : 2006 KM103

    The following Minor Planet Electronic Circular may be linked-to from your own Web pages, but must not otherwise be redistributed electronically.

    A form allowing access to any MPEC is at the bottom of this page.


    Read MPEC 2006-L02 Read MPEC 2006-L04


    M.P.E.C. 2006-L03                                Issued 2006 June 1, 16:24 UT
    
         The Minor Planet Electronic Circulars contain information on unusual
             minor planets and routine data on comets.  They are published
       on behalf of Commission 20 of the International Astronomical Union by the
              Minor Planet Center, Smithsonian Astrophysical Observatory,
                              Cambridge, MA 02138, U.S.A.
    
                      Supported in part by the Brinson Foundation
                      Supported in part by the TABASGO Foundation
                 Prepared using the Tamkin Foundation Computer Network
    
                                  MPC@CFA.HARVARD.EDU
              URL http://cfa-www.harvard.edu/iau/mpc.html  ISSN 1523-6714
    
                                      2006 KM103
    
    Observations:
         K06KA3M* C2006 05 31.34749 16 36 15.55 +07 02 59.5          20.8 V EL003G96
         K06KA3M  C2006 05 31.35412 16 36 14.90 +07 03 04.7          20.8 V EL003G96
         K06KA3M  C2006 05 31.36090 16 36 14.22 +07 03 10.0          20.6 V EL003G96
         K06KA3M  C2006 05 31.36766 16 36 13.53 +07 03 15.4          20.7 V EL003G96
         K06KA3M  C2006 05 31.39190 16 36 11.19 +07 03 33.6          21.0 V EL003G96
         K06KA3M  C2006 05 31.39807 16 36 10.58 +07 03 38.9          21.3 V EL003G96
         K06KA3M  C2006 05 31.40396 16 36 09.90 +07 03 42.9          21.3 V EL003G96
         K06KA3M  C2006 05 31.41000 16 36 09.39 +07 03 47.4          22.2 V EL003G96
         K06KA3M  C2006 05 31.41691 16 36 08.71 +07 03 52.8          21.7 V EL003G96
         K06KA3M  C2006 05 31.42409 16 36 07.99 +07 03 58.3          21.2 V EL003G96
         K06KA3M  C2006 05 31.43118 16 36 07.30 +07 04 03.5          21.3 V EL003G96
         K06KA3M  C2006 05 31.43825 16 36 06.62 +07 04 08.9          21.1 V EL003G96
         K06KA3M  C2006 06 01.22859 16 34 52.35 +07 14 03.9          20.9 R EL003651
         K06KA3M  C2006 06 01.23608 16 34 51.76 +07 14 12.1          20.9 R EL003651
         K06KA3M  C2006 06 01.24358 16 34 50.88 +07 14 15.7          20.9 R EL003651
         K06KA3M 5C2006 06 01.25799 16 34 49.49 +07 14 24.8          21.2 R EL003673
         K06KA3M 5C2006 06 01.26528 16 34 48.76 +07 14 30.1                 EL003673
         K06KA3M  C2006 06 01.27043 16 34 48.15 +07 14 34.5          21.2 V EL003G96
         K06KA3M 5C2006 06 01.27512 16 34 47.80 +07 14 37.6                 EL003673
         K06KA3M  C2006 06 01.27602 16 34 47.56 +07 14 38.7          21.4 V EL003G96
         K06KA3M  C2006 06 01.28160 16 34 46.99 +07 14 43.0          21.2 V EL003G96
         K06KA3M 5C2006 06 01.28218 16 34 47.12 +07 14 42.8                 EL003673
         K06KA3M  C2006 06 01.31058 16 34 44.11 +07 15 04.7          20.9 V EL003G96
         K06KA3M  C2006 06 01.31558 16 34 43.60 +07 15 08.2          20.8 V EL003G96
         K06KA3M  C2006 06 01.32037 16 34 43.14 +07 15 11.7          21.0 V EL003G96
         K06KA3M  C2006 06 01.32532 16 34 42.63 +07 15 15.5          20.9 V EL003G96
         K06KA3M  C2006 06 01.38348 16 34 36.89 +07 15 58.0          22.1 V EL003291
         K06KA3M HC2006 06 01.40317 16 34 34.96 +07 16 12.3                 EL003291
         K06KA3M  C2006 06 01.41057 16 34 34.12 +07 16 17.9          21.6 V EL003291
    
    Observer details:
    291 LPL/Spacewatch II.  Observer J. V. Scotti.  1.8-m f/2.7 reflector + CCD.
    651 Grasslands Observatory, Tucson.  Observer J. E. McGaha.  0.62-m f/5.1
        reflector + CCD.
    673 Table Mountain Observatory, Wrightwood.  Observer J. Young.  0.61-m f/16
        Cassegrain + CCD.
    G96 Mt. Lemmon Survey.  Observer A. D. Grauer.  Measurers E. C. Beshore,
        E. J. Christensen, G. J. Garradd, A. R. Gibbs, A. D. Grauer, R. E. Hill,
        R. A. Kowalski, S. M. Larson, R. H. McNaught.  1.5-m reflector + CCD.
    
    Orbital elements:
    2006 KM103                                               Earth MOID = 0.0993 AU
    Epoch 2006 Mar. 6.0 TT = JDT 2453800.5                  MPC
    M 191.69635              (2000.0)            P               Q
    n   0.58844852     Peri.  201.04440     +0.89632734     -0.44293508
    a   1.4103613      Node   185.37763     +0.43129652     +0.88151388
    e   0.2267675      Incl.   12.41245     +0.10286211     +0.16352918
    P   1.67           H   20.2           G   0.15           U   9
    Residuals in seconds of arc
    060531 G96  0.4-  0.3-    060531 G96  0.3+  0.1-    060601 G96  1.0-  0.1-
    060531 G96  0.2-  0.2-    060531 G96  0.5+  0.1-    060601 673  0.5+  0.3-
    060531 G96  0.3-  0.1-    060601 651  0.1-  0.1-    060601 G96  0.6-  0.2+
    060531 G96  0.6-  0.2+    060601 651  2.3+  2.5+    060601 G96  0.7-  0.0
    060531 G96  0.4+  0.1-    060601 651  0.3+  0.6+    060601 G96  0.4-  0.0
    060531 G96  0.5+  0.5+    060601 673  0.1-  0.4-    060601 G96  0.7-  0.1+
    060531 G96  1.0-  0.0     060601 673  0.2-  0.5-    060601 291  0.4+  0.1-
    060531 G96  0.3+  0.1-    060601 G96  0.4-  0.4-    060601 291  0.8+  0.2-
    060531 G96  0.3+  0.0     060601 673  0.2+  0.3-    060601 291  0.7-  0.0
    060531 G96  0.2+  0.1+    060601 G96  0.8-  0.3-
    
    Ephemeris:
    2006 KM103               a,e,i = 1.41, 0.23, 12                  q = 1.0905
    Date    TT    R. A. (2000) Decl.     Delta      r     Elong.  Phase     V
    2006 05 25    16 45.99   +05 32.1    0.655    1.620   151.9    17.1    21.2
    2006 06 04    16 30.45   +07 46.2    0.638    1.598   149.6    18.8    21.2
    2006 06 14    16 14.92   +09 03.9    0.639    1.573   143.0    22.8    21.3
    2006 06 24    16 01.82   +09 20.1    0.653    1.547   134.7    27.8    21.5
    2006 07 04    15 52.91   +08 40.0    0.679    1.519   126.1    32.7    21.6
    2006 07 14    15 48.99   +07 16.2    0.711    1.490   118.1    37.0    21.8
    2006 07 24    15 50.03   +05 21.2    0.747    1.459   110.8    40.6    22.0
    
    Kyle E. Smalley              (C) Copyright 2006 MPC           M.P.E.C. 2006-L03
    

    Read MPEC 2006-L02 Read MPEC 2006-L04


    MPEC number:

    Enter an MPEC number in one of the following forms:

    • 1997-B01 (the full form)
    • J97B01 (the packed version of the full form)
    • B01 (the abbreviated form)